Location: Mentone
(34.5413°N, 85.5351°W)
Time: 04:42:16
(UTC-06:00)

Tiros 1 despin weight - All Passes

Search period start: 11 February 2016 00:00
Search period end: 21 February 2016 00:00
Orbit: 597 x 645 km, 48.2° (Epoch: 10 February)

Date Brightness Start Highest point End Pass type
(mag) Time Alt. Az. Time Alt. Az. Time Alt. Az.
11 Feb - 00:40:35 10° WSW 00:42:04 11° SW 00:43:34 10° SSW night (unlit)
11 Feb - 14:43:12 10° SSW 14:47:11 31° SE 14:51:08 10° ENE daylight
11 Feb - 16:24:26 10° WSW 16:28:41 42° NNW 16:32:55 10° NE daylight
11 Feb - 18:08:25 10° NW 18:11:11 16° NNW 18:13:56 10° NNE visible
11 Feb - 19:51:37 10° NNW 19:54:13 15° N 19:56:48 10° NE visible
11 Feb - 21:32:41 10° NW 21:36:48 36° NNE 21:40:55 10° E night (unlit)
11 Feb - 23:14:17 10° WNW 23:18:24 38° SW 23:22:33 10° SSE night (unlit)
12 Feb - 15:00:03 10° SW 15:04:31 68° SE 15:08:57 10° ENE daylight
12 Feb - 16:42:40 10° W 16:46:25 26° NNW 16:50:10 10° NE daylight
12 Feb - 18:26:55 10° NW 18:29:14 14° N 18:31:32 10° NNE visible
12 Feb - 20:08:59 10° NNW 20:12:12 19° NNE 20:15:25 10° ENE visible
12 Feb - 21:50:00 10° NW 21:54:25 68° NE 21:58:51 10° ESE night (unlit)
12 Feb - 23:32:39 10° W 23:35:39 18° SW 23:38:38 10° S night (unlit)
13 Feb - 13:37:17 10° S 13:40:42 21° SE 13:44:05 10° E daylight
13 Feb - 15:17:34 10° WSW 15:22:01 59° NNW 15:26:25 10° NE daylight
13 Feb - 17:01:11 10° WNW 17:04:18 18° NNW 17:07:25 10° NNE daylight
13 Feb - 18:44:56 10° NNW 18:47:18 14° N 18:49:40 10° NE visible
13 Feb - 20:26:13 10° NW 20:30:03 28° NNE 20:33:54 10° E visible
13 Feb - 22:07:31 10° WNW 22:11:52 58° SW 22:16:14 10° SE night (unlit)
14 Feb - 13:53:39 10° SSW 13:57:58 45° SE 14:02:14 10° ENE daylight
14 Feb - 15:35:35 10° W 15:39:39 33° NNW 15:43:42 10° NE daylight
14 Feb - 17:19:47 10° NW 17:22:19 15° N 17:24:49 10° NNE daylight
14 Feb - 19:02:27 10° NNW 19:05:19 17° NNE 19:08:12 10° NE visible
14 Feb - 20:43:28 10° NW 20:47:45 48° NNE 20:52:03 10° ESE visible
14 Feb - 22:25:27 10° WNW 22:29:10 26° SW 22:32:53 10° S night (unlit)
15 Feb - 12:31:52 10° SSE 12:34:14 14° SE 12:36:35 10° E daylight
15 Feb - 14:10:50 10° SW 14:15:22 85° NW 14:19:52 10° NE daylight
15 Feb - 15:53:58 10° WNW 15:57:27 22° NNW 16:00:56 10° NNE daylight
15 Feb - 17:38:05 10° NNW 17:40:23 14° N 17:42:39 10° NNE daylight
15 Feb - 19:19:44 10° NNW 19:23:15 23° NNE 19:26:47 10° ENE visible
15 Feb - 21:00:51 10° NW 21:05:17 86° SW 21:09:44 10° SE visible
15 Feb - 22:44:43 10° WSW 22:46:20 12° SW 22:47:58 10° SSW night (unlit)
16 Feb - 12:47:26 10° SSW 12:51:26 30° SE 12:55:23 10° ENE daylight
16 Feb - 14:28:36 10° WSW 14:32:55 44° NNW 14:37:12 10° NE daylight
16 Feb - 16:12:34 10° NW 16:15:24 16° NNW 16:18:13 10° NNE daylight
16 Feb - 17:55:50 10° NNW 17:58:26 15° N 18:01:00 10° NE visible
16 Feb - 19:36:57 10° NW 19:41:03 35° NNE 19:45:07 10° E visible
16 Feb - 21:18:32 10° WNW 21:22:40 40° SW 21:26:48 10° SSE visible
17 Feb - 13:04:14 10° SW 13:08:45 66° SE 13:13:13 10° ENE daylight
17 Feb - 14:46:48 10° W 14:50:38 27° NNW 14:54:27 10° NE daylight
17 Feb - 16:31:04 10° NW 16:33:26 14° N 16:35:48 10° NNE daylight
17 Feb - 18:13:13 10° NNW 18:16:25 19° NNE 18:19:36 10° ENE visible
17 Feb - 19:54:15 10° NW 19:58:39 66° NE 20:03:03 10° ESE visible
17 Feb - 21:36:51 10° W 21:39:53 18° SW 21:42:56 10° S night (unlit)
18 Feb - 11:41:31 10° S 11:44:55 21° SE 11:48:17 10° E daylight
18 Feb - 13:21:43 10° WSW 13:26:13 61° NW 13:30:40 10° NE daylight
18 Feb - 15:05:19 10° WNW 15:08:30 19° NNW 15:11:41 10° NNE daylight
18 Feb - 16:49:07 10° NNW 16:51:30 14° N 16:53:53 10° NE daylight
18 Feb - 18:30:27 10° NW 18:34:17 27° NNE 18:38:05 10° E visible
18 Feb - 20:11:45 10° WNW 20:16:06 60° SW 20:20:27 10° SE visible
19 Feb - 11:57:49 10° SSW 12:02:10 44° SE 12:06:28 10° ENE daylight
19 Feb - 13:39:42 10° W 13:43:51 34° NNW 13:47:57 10° NE daylight
19 Feb - 15:23:54 10° NW 15:26:30 15° N 15:29:05 10° NNE daylight
19 Feb - 17:06:39 10° NNW 17:09:32 17° NNE 17:12:23 10° NE daylight
19 Feb - 18:47:41 10° NW 18:51:58 46° NNE 18:56:14 10° ESE visible
19 Feb - 20:29:39 10° WNW 20:33:24 27° SW 20:37:09 10° SSE visible
20 Feb - 10:36:07 10° SSE 10:38:25 14° SE 10:40:44 10° E daylight
20 Feb - 12:14:58 10° SW 12:19:33 87° NW 12:24:05 10° NE daylight
20 Feb - 13:58:04 10° WNW 14:01:39 22° NNW 14:05:11 10° NNE daylight
20 Feb - 15:42:13 10° NNW 15:44:32 14° N 15:46:53 10° NNE daylight
20 Feb - 17:23:55 10° NNW 17:27:27 22° NNE 17:30:57 10° ENE daylight
20 Feb - 19:05:03 10° NW 19:09:30 89° SW 19:13:55 10° SE visible
20 Feb - 20:48:47 10° WSW 20:50:33 12° SW 20:52:20 10° SSW visible
